Regional Weather Roundup
Issued by NWS

Home | Current Version | Previous Version | Graphics & Text | Print | Product List | Glossary On
Versions: 1 2 3 4 5 6 7 8 9 10 11 12 13 14 15 16 17 18 19 20 21 22 23 24 25 26 27 28 29 30 31 32 33 34 35 36 37 38 39 40 41 42 43 44 45 46 47 48 49 50
000
ASUS43 KDTX 211301
RWRMI
MICHIGAN HOURLY REGIONAL WEATHER ROUNDUP
NATIONAL WEATHER SERVICE DETROIT/PONTIAC MI
800 AM EST TUE NOV 21 2017

NOTE: "FAIR" INDICATES FEW OR NO CLOUDS BELOW 12,000 FEET WITH NO
SIGNIFICANT WEATHER AND/OR OBSTRUCTION TO VISIBILITY.

MIZ047>049-052>055-059>063-066>070-074>076-081>083-211400-
SOUTHEAST LOWER MICHIGAN

CITY           SKY/WX    TMP DP  RH WIND       PRES   REMARKS
ADRIAN         CLOUDY    38  27  64 SW16G24   29.74S WCI  29
ALMA           PTCLDY    40  31  71 S12       29.58S WCI  33
ANN ARBOR      CLOUDY    39  27  62 S15       29.72R WCI  31
BAD AXE        CLOUDY    41  28  60 SW17G23   29.58S
CARO           CLOUDY    42  29  60 SW16      29.59S
DETROIT CITY   CLOUDY   N/A N/A N/A SW17G25   29.72R
DETROIT        CLOUDY    41  27  57 SW18G30   29.74R
FLINT          PTCLDY    42  27  55 SW14G20   29.64S
GROSSE ILE     PTCLDY    40  27  59 SW16G22   29.73S WCI  32
HILLSDALE      PTCLDY    37  28  70 SW10      29.71S WCI  30
HOWELL         CLOUDY    41  29  61 SW16G22   29.65F

CITY           SKY/WX    TMP DP  RH WIND       PRES   REMARKS
JACKSON        PTCLDY    42  27  55 SW20G25   29.69S
LAMBERTVILLE   MOCLDY    42  27  53 SW14G20   29.76R
LANSING        PTCLDY    41  29  62 SW21      29.63F
LAPEER         FAIR      41  27  57 SW14G23   29.64S
MASON          PTCLDY    42  29  59 SW7G18    29.65F
MONROE         CLOUDY    41  26  55 SW13G18   29.74S
MT. CLEMENS    MOCLDY    42  27  56 SW16G23   29.68S
PONTIAC        CLOUDY    39  27  62 S14       29.67S WCI  31
PORT HOPE        N/A     43  28  55 SW13G21   29.54R
PORT HURON     CLOUDY    41  25  52 S12G18    29.68R
TRI CITIES     MOCLDY    42  31  64 SW18G25   29.57F
MIDLAND        FAIR      40  30  67 SW12      29.55F WCI  33
TROY           CLOUDY    42  26  52 SW14G23   29.71S
SAGINAW HB     PTCLDY    41  30  65 SW15G22   29.57F
$$
MIZ043>046-050>051-056>058-064>065-071>073-077>080-211400-
SOUTHWEST LOWER MICHIGAN

CITY           SKY/WX    TMP DP  RH WIND       PRES   REMARKS
BATTLE CREEK   CLEAR     38  29  70 SW15      29.67F WCI  29
BENTON HARBOR  CLEAR     42  29  59 S10       29.69R
BIG RAPIDS     CLEAR     42  33  70 SW15G22   29.53R
COLDWATER      PTCLDY    41  27  56 SW17G24   29.71S
FREMONT        FAIR      44  37  74 SW14G21   29.56R
HOLLAND        PTCLDY    47  36  65 SW23G37   29.62S
GRAND RAPIDS   PTCLDY    41  33  73 SW14      29.61S
IONIA          FAIR      41  30  64 SW18G24   29.60S
KALAMAZOO      CLEAR     41  27  57 SW20      29.67F
LUDINGTON      MOCLDY    45  37  73 SW15G21   29.54R
MARSHALL       PTCLDY    40  28  62 S15       29.67F WCI  31
MOUNT PLEASANT PTCLDY    42  32  68 SW14      29.54R
MUSKEGON       CLOUDY    48  36  63 SW21G36   29.59R
SOUTH HAVEN    CLEAR     45  34  66 SW15G22   29.66R
$$
MIZ016>042-211400-
NORTHERN LOWER MICHIGAN

CITY           SKY/WX    TMP DP  RH WIND       PRES   REMARKS
ALPENA         CLEAR     42  34  73 SW9       29.45R
BEAVER ISLAND  MOCLDY    43  31  62 W18G29    29.42R
BELLAIRE       PTCLDY    44  37  75 SW7       29.45R
CADILLAC       CLEAR     39  33  80 SW10      29.49R WCI  32
CHARLEVOIX     PTCLDY    45  31  57 W21G26    29.46R
FRANKFORT      MOCLDY    46  30  52 W17G23    29.50R
GAYLORD        CLEAR     39  31  72 SW14      29.43R WCI  31
GRAYLING       CLEAR     40  32  73 SW6       29.46S
HARBOR SPRINGS PTCLDY    46  33  61 W18G31    29.40R
MANISTEE       CLOUDY    46  34  62 W15G23    29.51R
OSCODA         PTCLDY    40  28  63 SW16      29.49R WCI  31
PELLSTON       MOCLDY    46  33  60 W10       29.41R
ROGERS CITY    CLEAR     41  33  72 SW8       29.42R
TRAVERSE CITY  MOCLDY    45  34  65 SW8       29.46R
$$
MIZ007>008-015-211400-
EASTERN UPPER MICHIGAN

CITY           SKY/WX    TMP DP  RH WIND       PRES   REMARKS
KINROSS        PTCLDY    39  31  72 SW7       29.38R WCI  34
MACKINAC ISLAN CLOUDY    44  32  63 W18G24    29.39R
NEWBERRY       MOCLDY    37  29  75 W15G21    29.37R WCI  27
S. S. MARIE    PTCLDY    40  30  67 SW12      29.35R WCI  33
MUNISING         N/A     36  27  69 NW18G32   29.44R WCI  26
$$
MIZ004>006-011>014-085-211400-
CENTRAL UPPER MICHIGAN

CITY           SKY/WX    TMP DP  RH WIND       PRES   REMARKS
MANISTIQUE     CLEAR     37  23  57 W13G23    29.42R WCI  29
ESCANABA       CLOUDY    37  26  64 W14       29.46R WCI  28
MENOMINEE      CLEAR     38  20  48 NW10G18   29.50R WCI  31
SAWYER-GWINN   FLURRIES  30  23  74 NW16G29   29.45R WCI  19
$$
MIZ001>003-009>011-084-211400-
WESTERN UPPER MICHIGAN

CITY           SKY/WX    TMP DP  RH WIND       PRES   REMARKS
IRON MOUNTAIN  CLOUDY    34  16  47 NW16G26   29.47R WCI  24
HOUGHTON       LGT SNOW  28  21  75 W33G40    29.42R WCI  11
COPPER HARBOR    N/A     32  23  69 N24G43    29.41R WCI  19
IRONWOOD       FLURRIES  25  16  68 NW22G29   29.60R WCI  10
$$

ABBREVIATIONS USED IN REMARKS
   TC - TEMPERATURE IN CELSIUS
  WCI - WIND CHILL INDEX
   HX - HEAT INDEX
  VSB - VISIBILITY




USA.gov is the U.S. government's official web portal to all federal, state and local government web resources and services.